Terminal Aerodrome Forecast
Issued by NWS

Home | Current Version | Previous Version | Text Only | Print | Product List | Glossary On
Versions: 1 2 3 4 5 6 7 8 9 10 11 12 13 14 15 16 17 18 19 20 21 22 23 24 25 26 27 28 29 30 31 32 33 34 35 36 37 38 39 40 41 42 43 44 45 46 47 48 49 50
000
FTUS44 KHGX 072345 CCA
TAFUTS
TAF COR
KUTS 072345Z 0800/0824 07003KT P6SM OVC025
     FM080500 04004KT P6SM -DZ BKN007 OVC012
     FM080900 36009KT P6SM OVC015
     FM081600 36011G17KT P6SM OVC025=

USA.gov is the U.S. government's official web portal to all federal, state and local government web resources and services.